CHINASAT 9C

Last updated on Thu Jul 03 2025 00:02:07 GMT+0000 (Coordinated Universal Time)

1 64471U 25132B 25182.91580983 .00031767 00000+0 30783-2 0 9992 2 64471 27.6467 90.9069 7333122 186.5911 151.2698 2.23940610 279
UTC large
Height (km)
Speed (km/s)
/
Latitude / Longitude
Inclination (degrees)
Orbital Period (minutes)
Azimuth
Elevation
Range (km)
Doppler Factor

Next 0 passes for location: London (51.5072 / 0.1276)

Sorry there are no passes over London.